C/2011 UF305 ( LINEAR )

Japanese version
Home page
Updated on June 15, 2014

---------------------------------------------------------------------

* Profile

Discovery Date October 31, 2011
Magnitude 18.1 mag
Discoverer Lincoln Laboratory Near-Earth Asteroid Research project

* Pictures

* Orbital Elements

Epoch 2012 July 12.0 TT = JDT 2456120.5
T 2012 July 22.16011 TT                                 MPC
q   2.1382024            (2000.0)            P               Q
z  -0.0003066      Peri.  121.99207     -0.29610146     -0.35829893
 +/-0.0000002      Node   297.43591     +0.07009046     +0.91632612
e   1.0006555      Incl.   93.96064     +0.95258136     -0.17879686
From 2150 observations 2011 July 25-2013 Apr. 22, mean residual 0".4.

* Finding Charts

* Magnitudes Graph

        m1 = 2.5 + 5 log d + 22.5 log r

---------------------------------------------------------------------

The orbital elements are published on M.P.E.C. 2014-J58.
The charts are made with StellaNavigator Ver.8 (AstroArts).
The magnitudes graphs are made with Comet for Windows.

---------------------------------------------------------------------

Copyright(C) Seiichi Yoshida (comet@aerith.net). All rights reserved.